Regional Weather Roundup
Issued by NWS

Home | Current Version | Previous Version | Text Only | Print | Product List | Glossary Off
Versions: 1 2 3 4 5 6 7 8 9 10 11 12 13 14 15 16 17 18 19 20 21 22 23 24 25 26 27 28 29 30 31 32 33 34 35 36 37 38 39 40 41 42 43 44 45 46 47 48 49 50

000
ASUS43 KMKX 010659
RWRWI

WISCONSIN REGIONAL WEATHER ROUNDUP
NATIONAL WEATHER SERVICE MILWAUKEE/SULLIVAN WI
100 AM CST SUN MAR 01 2015

NOTE: "FAIR" INDICATES FEW OR NO CLOUDS BELOW 12,000 FEET WITH NO
SIGNIFICANT WEATHER AND/OR OBSTRUCTIONS TO VISIBILITY.

WIZ001-002-006>008-014>016-023>028-010800-
NORTHWEST WISCONSIN

CITY           SKY/WX    TMP DP  RH WIND       PRES   REMARKS
SUPERIOR ARPT  MOCLDY    12   3  67 SW8       30.25F WCI   1
ASHLAND        CLOUDY    13   2  61 SW10      30.26F WCI   0
HAYWARD        CLOUDY    12   2  64 S9        30.25F WCI   0
SIREN          CLOUDY    13   5  70 SW9       30.26F WCI   1
CUMBERLAND     FLURRIES  12   5  73 S9        30.26F WCI   0
RICE LAKE      FLURRIES  12   4  72 S9        30.30F WCI  -1
CHETEK         FLURRIES  11   2  67 S7        30.30F WCI   0
LADYSMITH      CLOUDY    11   1  63 S8        30.30S WCI   0
EAU CLAIRE     NOT AVBL
MENOMONIE      FLURRIES  14   5  68 S8        30.33F WCI   2
NEW RICHMOND   FLURRIES  12   6  76 S9        30.29F WCI   0
OSCEOLA        CLEAR     11   5  76 S9        30.31F WCI  -2
$$

WIZ003>005-009-010-017-018-010800-
NORTH CENTRAL WISCONSIN

CITY           SKY/WX    TMP DP  RH WIND       PRES   REMARKS
MANITOWISH WTR CLOUDY     9  -3  57 SW9       30.23F WCI  -4
ARBOR VITAE    MOCLDY    11  -1  57 SW5       30.24F WCI   3
WOODRUFF       MOCLDY    11  -1  57 SW5       30.24F WCI   3
RHINELANDER    CLEAR      9  -3  58 SW8       30.26F WCI  -3
EAGLE RIVER    PTCLDY    11  -4  51 SW10      30.24S WCI  -3
LAND O LAKES   MOCLDY    11  -3  53 SW8       30.23F WCI  -1
PHILLIPS       CLOUDY    10  -1  61 SW10      30.25F WCI  -3
TOMAHAWK       CLEAR      8  -2  62 CALM      30.28F
MEDFORD        MOCLDY    10  -1  61 S7        30.29S WCI  -2
MERRILL        PTCLDY    11  -1  57 SW7       30.30F WCI   0
$$

WIZ029-030-035-036-043>047-010800-
CENTRAL WISCONSIN

CITY           SKY/WX    TMP DP  RH WIND       PRES   REMARKS
WAUSAU         CLOUDY    11  -1  58 SW8       30.32F WCI  -1
MOSINEE        PTCLDY    12   1  62 S8        30.34F WCI   1
MARSHFIELD     CLEAR     10  -1  61 SW7       30.33F WCI  -1
STEVENS POINT  CLOUDY    11   1  63 SW6       30.36F WCI   1
WAUPACA        CLOUDY    16   2  54 SW9       30.40S WCI   5
WAUTOMA        NOT AVBL
WISC RAPIDS    CLOUDY    11  -2  56 SW9       30.38F WCI  -2
CAMP DOUGLAS   NOT AVBL
$$

WIZ011>013-019>022-031-037>040-048>050-010800-
NORTHEAST WISCONSIN

CITY           SKY/WX    TMP DP  RH WIND       PRES   REMARKS
ANTIGO         CLOUDY    10   1  67 SW7       30.29F WCI  -2
SHAWANO        CLOUDY    16   3  55 SW6       30.38S WCI   8
OCONTO         CLOUDY    15   3  59 SW7       30.39F WCI   5
STURGEON BAY   CLOUDY    16   1  53 SW13      30.40F WCI   2
GREEN BAY      CLOUDY    15   4  61 SW13      30.40F WCI   1
MANITOWOC      NOT AVBL
APPLETON       CLOUDY    14   5  67 SW15      30.39S WCI  -1
CLINTONVILLE   CLOUDY    14   3  62 SW8       30.38S WCI   3
OSHKOSH        CLOUDY    14   7  73 SW10      30.40F WCI   1
$$

WIZ032>034-041-042-053>061-010800-
SOUTHWEST WISCONSIN

CITY           SKY/WX    TMP DP  RH WIND       PRES   REMARKS
LA CROSSE      CLOUDY    14   5  67 S6        30.40F WCI   5
SPARTA         CLEAR     10   1  68 CALM      30.41S
VIROQUA        MOCLDY     7   2  81 S7        30.36S WCI  -5
BOSCOBEL       CLOUDY     3  -2  79 CALM      30.43F
PRAIRIE DU CHI FLURRIES   7   1  74 CALM      30.43F
PLATTEVILLE    MOCLDY     9   6  89 E3        30.39F
$$

WIZ056-057-062-063-064-067-068-010800-
SOUTH CENTRAL WISCONSIN

CITY           SKY/WX    TMP DP  RH WIND       PRES   REMARKS
REEDSBURG      FLURRIES  11   4  75 SW3       30.40F
BARABOO/DELLS  LGT SNOW  11   4  76 SW3       30.39F
LONE ROCK      NOT AVBL
MINERAL POINT  LGT SNOW  12  10  92 S3        30.37F
MADISON        CLOUDY    14  10  84 S7        30.41S WCI   4
MIDDLETON      CLOUDY    15  10  80 SW3       30.41F
WATERTOWN      FLURRIES  12  10  91 CALM      30.41S
MONROE         FLURRIES  12  10  92 S7        30.38F WCI   2
JANESVILLE     MOCLDY    14  12  92 CALM      30.41F
$$

WIZ051-052-058>065-066-070>072-010800-
SOUTHEAST WISCONSIN

CITY           SKY/WX    TMP DP  RH WIND       PRES   REMARKS
MILWAUKEE      FLURRIES  17  10  74 SW6       30.43F WCI   9
WAUKESHA       FAIR      14   9  79 CALM      30.43S
MILWAUKEE/TIMM FLURRIES  18  10  73 S5        30.44F WCI  11
RACINE         MOCLDY    17  10  74 SW5       30.45F WCI  10
BURLINGTON     FLURRIES  13  10  87 CALM      30.43S
KENOSHA        CLOUDY    15  12  88 CALM      30.43F
FOND DU LAC    FLURRIES  12   6  77 SW5       30.41S WCI   4
SHEBOYGAN      CLOUDY    14   7  73 SW9       30.42F WCI   2
WEST BEND      FLURRIES  14   9  79 SW5       30.41F WCI   6
JUNEAU         LGT SNOW  12   9  87 S5        30.42S WCI   4
$$

LSZ147-162-010800-
LAKE SUPERIOR

STATION/POSITION TIME  TEMP    WIND        PRES    WAVE
                       AIR SEA DIR/SP/G            HT/PER
                 (UTC) (F)     (DEG/KT/KT) (MB)    (FT/S)
DEVILS ISLAND    0600   15     200/ 10/ 14 1025.8F
PORT WING        0600   15     200/  8/ 15 1024.7F
SAXON HARBOR     0600   15     200/ 11/ 17 1025.1F
$$

LMZ867-665-643>646-010800-
LAKE MICHIGAN

STATION/POSITION TIME  TEMP    WIND        PRES    WAVE
                       AIR SEA DIR/SP/G            HT/PER
                 (UTC) (F)     (DEG/KT/KT) (MB)    (FT/S)
NORTHPORT PIER   0603   15     200/  2/ 11 1029.1F
SISTER BAY       0543   16     210/ 11/ 13   N/A
KEWAUNEE LAKESHO 0618   17     220/  9/ 12 1029.0F
SHEBOYGAN LAKESH 0600   18     200/ 13/ 16 1032.1F
PORT WASHINGTON  0640   18     250/  5/  8 1031.2F
MILWAUKEE LAKESH 0600   18     220/  8/ 10   N/A
KENOSHA   LAKESH 0600   18     200/  3/  5 1030.8F
$$

TC  - TEMPERATURE IN CELSIUS
VSB - VISIBILITY IN STATUTE MILES
WCI - WIND CHILL INDEX
HX  - HEAT INDEX



USA.gov is the U.S. government's official web portal to all federal, state and local government web resources and services.